When you browse on this site, cookies collect data to enhance your experience and personalize the content and advertising you see.
Visit our Privacy Policy to learn more. By continuing to use the site, you agree to this use of cookies and data.
  • In Austria
  • List of Countries
  • For 7 days
  • Water Temperature
  • Weather Map
  • News
  • Weather Widgets
  • user-avatar
    Login

    Hourly Weather Kidryasovo

    Today, 7 June, Sunday

    Time Temperature Precipitation Wind Pressure Humidity
    00:00 +16°C° 0 mm 2 mps 741 mmHg 54%
    01:00 +16°C° 0 mm 2 mps 741 mmHg 53%
    02:00 +15°C° 0 mm 2 mps 741 mmHg 53%
    03:00 +15°C° 0 mm 2 mps 741 mmHg 52%
    04:00 +15°C° 0 mm 2 mps 741 mmHg 57%
    05:00 +16°C° 0 mm 2 mps 741 mmHg 57%
    06:00 +17°C° 0 mm 2 mps 741 mmHg 58%
    07:00 +18°C° 0 mm 3 mps 742 mmHg 58%
    08:00 +19°C° 0 mm 3 mps 742 mmHg 53%
    09:00 +21°C° 0 mm 3 mps 742 mmHg 47%
    10:00 +23°C° 0 mm 4 mps 742 mmHg 42%
    11:00 +25°C° 0 mm 3 mps 742 mmHg 39%
    12:00 +26°C° 0 mm 3 mps 742 mmHg 35%
    13:00 +27°C° 0 mm 2 mps 742 mmHg 31%
    14:00 +26°C° 0 mm 2 mps 741 mmHg 34%
    15:00 +26°C° 0 mm 2 mps 741 mmHg 36%
    16:00 +26°C° 0 mm 2 mps 741 mmHg 38%
    17:00 +25°C° 0 mm 2 mps 741 mmHg 41%
    18:00 +24°C° 0 mm 2 mps 740 mmHg 44%
    19:00 +24°C° 0 mm 2 mps 740 mmHg 47%
    20:00 +21°C° 0 mm 2 mps 740 mmHg 47%
    21:00 +19°C° 0 mm 2 mps 740 mmHg 46%
    22:00 +18°C° 0 mm 2 mps 740 mmHg 46%
    23:00 +17°C° 0 mm 2 mps 740 mmHg 45%

    Tomorrow, 8 June, Monday

    Time Temperature Precipitation Wind Pressure Humidity
    00:00 +17°C° 0 mm 3 mps 740 mmHg 45%
    01:00 +17°C° 0 mm 3 mps 740 mmHg 44%
    02:00 +16°C° 0 mm 3 mps 740 mmHg 44%
    03:00 +16°C° 0 mm 3 mps 740 mmHg 45%
    04:00 +14°C° 0 mm 3 mps 740 mmHg 45%
    05:00 +17°C° 0 mm 3 mps 740 mmHg 45%
    06:00 +18°C° 0 mm 3 mps 740 mmHg 46%
    07:00 +20°C° 0 mm 3 mps 741 mmHg 46%
    08:00 +22°C° 0 mm 3 mps 741 mmHg 42%
    09:00 +23°C° 0 mm 4 mps 741 mmHg 39%
    10:00 +26°C° 0 mm 4 mps 741 mmHg 35%
    11:00 +27°C° 0 mm 4 mps 741 mmHg 33%
    12:00 +27°C° 0 mm 4 mps 741 mmHg 31%
    13:00 +28°C° 0 mm 4 mps 741 mmHg 29%
    14:00 +28°C° 0 mm 4 mps 741 mmHg 31%
    15:00 +27°C° 0 mm 4 mps 741 mmHg 32%
    16:00 +27°C° 0 mm 4 mps 741 mmHg 33%
    17:00 +26°C° 0 mm 4 mps 741 mmHg 38%
    18:00 +25°C° 0 mm 4 mps 741 mmHg 43%
    19:00 +24°C° 0 mm 3 mps 741 mmHg 48%
    20:00 +21°C° 0 mm 3 mps 741 mmHg 47%
    21:00 +20°C° 0 mm 3 mps 741 mmHg 47%
    22:00 +19°C° 0 mm 3 mps 741 mmHg 47%
    23:00 +18°C° 0 mm 3 mps 741 mmHg 48%

    Day after tomorrow, 9 June, Tuesday

    Time Temperature Precipitation Wind Pressure Humidity
    00:00 +18°C° 0 mm 3 mps 741 mmHg 49%
    01:00 +17°C° 0 mm 2 mps 742 mmHg 50%
    02:00 +17°C° 0 mm 3 mps 742 mmHg 49%
    03:00 +17°C° 0 mm 3 mps 742 mmHg 49%
    04:00 +17°C° 0 mm 3 mps 743 mmHg 49%
    05:00 +18°C° 0 mm 3 mps 743 mmHg 50%
    06:00 +19°C° 0 mm 4 mps 743 mmHg 51%
    07:00 +20°C° 0 mm 4 mps 743 mmHg 52%
    08:00 +22°C° 0 mm 4 mps 744 mmHg 48%
    09:00 +25°C° 0 mm 4 mps 744 mmHg 43%
    10:00 +27°C° 0 mm 4 mps 744 mmHg 39%
    11:00 +27°C° 0 mm 4 mps 744 mmHg 37%
    12:00 +28°C° 0 mm 4 mps 744 mmHg 35%
    13:00 +28°C° 0 mm 4 mps 744 mmHg 33%
    14:00 +28°C° 0 mm 4 mps 744 mmHg 33%
    15:00 +28°C° 0 mm 3 mps 744 mmHg 34%
    16:00 +28°C° 0 mm 3 mps 744 mmHg 35%
    17:00 +27°C° 0 mm 3 mps 743 mmHg 39%
    18:00 +26°C° 0 mm 2 mps 743 mmHg 43%
    19:00 +25°C° 0 mm 2 mps 743 mmHg 47%
    20:00 +24°C° 0 mm 1 mps 743 mmHg 46%
    21:00 +22°C° 0 mm 1 mps 743 mmHg 46%
    22:00 +21°C° 0 mm 1 mps 743 mmHg 46%
    23:00 +20°C° 0 mm 1 mps 744 mmHg 47%

    10 June, Wednesday

    Time Temperature Precipitation Wind Pressure Humidity
    00:00 +19°C° 0 mm 2 mps 744 mmHg 47%
    01:00 +19°C° 0 mm 2 mps 744 mmHg 48%
    02:00 +19°C° 0 mm 2 mps 744 mmHg 50%
    03:00 +18°C° 0 mm 2 mps 744 mmHg 53%
    04:00 +18°C° 0 mm 2 mps 744 mmHg 55%
    05:00 +19°C° 0 mm 2 mps 744 mmHg 55%
    06:00 +20°C° 0 mm 3 mps 744 mmHg 56%
    07:00 +22°C° 0 mm 3 mps 745 mmHg 56%
    08:00 +25°C° 0 mm 3 mps 745 mmHg 52%
    09:00 +26°C° 0 mm 3 mps 745 mmHg 47%
    10:00 +28°C° 0 mm 3 mps 745 mmHg 43%
    11:00 +28°C° 0 mm 3 mps 745 mmHg 41%
    12:00 +29°C° 0 mm 2 mps 745 mmHg 38%
    13:00 +29°C° 0 mm 2 mps 745 mmHg 36%
    14:00 +29°C° 0 mm 2 mps 744 mmHg 37%
    15:00 +29°C° 0 mm 1 mps 744 mmHg 37%
    16:00 +29°C° 0 mm 1 mps 744 mmHg 37%
    17:00 +28°C° 0 mm 1 mps 744 mmHg 43%
    18:00 +27°C° 0 mm 1 mps 744 mmHg 48%
    19:00 +26°C° 0 mm 1 mps 744 mmHg 54%
    20:00 +25°C° 0 mm 2 mps 744 mmHg 55%
    21:00 +23°C° 0 mm 2 mps 744 mmHg 57%
    22:00 +20°C° 0 mm 2 mps 744 mmHg 58%
    23:00 +20°C° 0 mm 2 mps 744 mmHg 60%

    11 June, Thursday

    Time Temperature Precipitation Wind Pressure Humidity
    00:00 +19°C° 0 mm 2 mps 744 mmHg 62%
    01:00 +19°C° 0 mm 3 mps 743 mmHg 64%
    02:00 +18°C° 0 mm 2 mps 743 mmHg 64%
    03:00 +18°C° 0 mm 2 mps 743 mmHg 65%
    04:00 +17°C° 0 mm 2 mps 743 mmHg 65%
    05:00 +19°C° 0 mm 2 mps 743 mmHg 60%
    06:00 +21°C° 0 mm 2 mps 743 mmHg 56%
    07:00 +23°C° 0 mm 2 mps 744 mmHg 51%
    08:00 +25°C° 0 mm 2 mps 743 mmHg 45%
    09:00 +27°C° 0 mm 2 mps 743 mmHg 40%
    10:00 +29°C° 0 mm 2 mps 743 mmHg 34%
    11:00 +29°C° 0 mm 2 mps 743 mmHg 31%
    12:00 +30°C° 0 mm 2 mps 743 mmHg 29%
    13:00 +31°C° 0 mm 2 mps 743 mmHg 27%
    14:00 +31°C° 0 mm 2 mps 742 mmHg 26%
    15:00 +31°C° 0 mm 2 mps 742 mmHg 25%
    16:00 +31°C° 0 mm 2 mps 742 mmHg 24%
    17:00 +30°C° 0 mm 1 mps 741 mmHg 29%
    18:00 +28°C° 0 mm 1 mps 741 mmHg 33%
    19:00 +27°C° 0 mm 1 mps 741 mmHg 38%
    20:00 +25°C° 0 mm 1 mps 740 mmHg 38%
    21:00 +24°C° 0 mm 1 mps 740 mmHg 38%
    22:00 +22°C° 0 mm 1 mps 740 mmHg 38%
    23:00 +21°C° 0 mm 1 mps 740 mmHg 40%

    12 June, Friday

    Time Temperature Precipitation Wind Pressure Humidity
    00:00 +21°C° 0 mm 1 mps 740 mmHg 42%
    01:00 +20°C° 0 mm 1 mps 740 mmHg 44%
    02:00 +20°C° 0 mm 1 mps 739 mmHg 46%
    03:00 +19°C° 0 mm 1 mps 739 mmHg 47%
    04:00 +19°C° 0 mm 1 mps 739 mmHg 48%
    05:00 +21°C° 0 mm 1 mps 739 mmHg 47%
    06:00 +22°C° 0 mm 1 mps 739 mmHg 46%
    07:00 +24°C° 0 mm 1 mps 739 mmHg 46%
    08:00 +26°C° 0 mm 1 mps 739 mmHg 41%
    09:00 +27°C° 0 mm 2 mps 739 mmHg 37%
    10:00 +29°C° 0 mm 2 mps 739 mmHg 33%
    11:00 +30°C° 0 mm 2 mps 738 mmHg 31%
    12:00 +31°C° 0 mm 2 mps 738 mmHg 29%
    13:00 +31°C° 0 mm 2 mps 738 mmHg 27%
    14:00 +31°C° 0 mm 2 mps 737 mmHg 27%
    15:00 +31°C° 0 mm 2 mps 737 mmHg 28%
    16:00 +31°C° 0 mm 2 mps 737 mmHg 28%
    17:00 +30°C° 0 mm 2 mps 736 mmHg 34%
    18:00 +29°C° 0 mm 2 mps 736 mmHg 40%
    19:00 +28°C° 0 mm 1 mps 736 mmHg 46%
    20:00 +26°C° 0 mm 1 mps 735 mmHg 47%
    21:00 +24°C° 0 mm 1 mps 735 mmHg 47%
    22:00 +23°C° 0 mm 1 mps 735 mmHg 48%
    23:00 +22°C° 0 mm 1 mps 735 mmHg 47%
    Show more